Hourly Data Report for November 11, 2017

All times are specified in Local Standard Time (LST). Add 1 hour to adjust for Daylight Saving Time where and when it is observed.

GREENWOOD A
NOVA SCOTIA

44°59'00.000" N
64°55'00.000" W
28.00 m
8202000
71397
YZX

Download Data

Hourly Data (November 2017)
Hourly Data Report for November 11, 2017
Temp Definition
°C
Dew Point Temp Definition
°C
Rel Hum Definition
%
Wind Dir Definition
10's deg

Wind Spd Definition
km/h
Visibility Definition
km
Stn Press Definition
kPa
Hmdx Definition


Wind Chill Definition


Weather Definition


TIME
00:00 -3.0 -9.6 60 27 33 24.1 101.24   -11 Mostly Cloudy
01:00 -3.0 -10.0 58 27 37 24.1 101.28   -11 Cloudy
02:00 -3.0 -9.2 62 27 35 24.1 101.32   -11 Cloudy
03:00 -3.0 -10.4 57 27 35 24.1 101.37   -11 Mostly Cloudy
04:00 -3.0 -9.6 60 27 30 24.1 101.44   -10 Mostly Cloudy
05:00 -3.1 -9.3 62 26 37 24.1 101.52   -11 Mostly Cloudy
06:00 -2.9 -7.9 68 27 24 24.1 101.61   -10 Cloudy
07:00 -2.4 -8.3 64 28 20 24.1 101.72   -8 Mostly Cloudy
08:00 -1.9 -6.9 69 26 32 24.1 101.79   -9 Mostly Cloudy
09:00 -1.0 -4.4 78 27 35 24.1 101.89   -8 Mainly Clear
10:00 0.0 -3.4 78 26 37 24.1 102.01   -7 Mainly Clear
11:00 0.1 -3.6 76 26 35 24.1 102.06     Mostly Cloudy
12:00 0.3 -3.1 78 26 35 24.1 102.11     Mainly Clear
13:00 1.8 -2.9 71 28 35 24.1 102.12     Mainly Clear
14:00 2.2 -3.6 65 26 39 24.1 102.12     Mainly Clear
15:00 2.1 -5.2 58 27 32 24.1 102.18     Mainly Clear
16:00 2.1 -5.2 58 29 28 24.1 102.26     Clear
17:00 1.3 -7.5 52 29 19 24.1 102.33     Clear
18:00 0.8 -7.6 53 29 13 24.1 102.47     Clear
19:00 0.4 -9.0 49 31 17 24.1 102.56     Clear
20:00 0.3 -9.2 49 32 7 24.1 102.65     Clear
21:00 -0.3 -8.9 52 32 13 24.1 102.72   -4 Clear
22:00 -0.9 -8.7 55 32 13 24.1 102.77   -5 Clear
23:00 -1.5 -16.2 32 30 7 24.1 102.78   -4 Clear

Notes on Data Quality.

Legend

  • E = Estimated
  • M = Missing
  • NA = Not Available
  • ‡ = Partner data that is not subject to review by the National Climate Archives
Date modified: